[Iaude] MPEC D20: 2024 CC8 [a=1.16,e=0.19,i=20.1,H=25.0]

mpec at cfa.harvard.edu mpec at cfa.harvard.edu
Fri Feb 16 18:11:47 EST 2024


M.P.E.C. 2024-D20                             Issued 2024 February 16, 23:10 UT

     The Minor Planet Electronic Circulars contain information on unusual
         minor planets, routine data on comets and natural satellites,
         and occasional editorial announcements.  They are published
    on behalf of Division F of the International Astronomical Union by the
          Minor Planet Center, Smithsonian Astrophysical Observatory,
                          Cambridge, MA 02138, U.S.A.
			  
             Prepared using the Tamkin Foundation Computer Network

                              MPC at CFA.HARVARD.EDU
            URL https://www.minorplanetcenter.net/    ISSN 1523-6714

                                    2024 CC8                                    


Observations:
     K24C08C  C2024 02 04.41372311 03 33.702+22 08 45.81         21.96GVED020F52
     K24C08C  C2024 02 04.42605011 03 30.013+22 07 14.59         21.04GVED020F52
     K24C08C  C2024 02 04.43832811 03 26.425+22 05 45.21         20.62GVED020F52
     K24C08C  C2024 02 04.45065711 03 22.720+22 04 14.10         21.55GVED020F52
     K24C08C* C2024 02 14.39872509 55 35.010-11 16 11.39         20.90wXED020F51
     K24C08C  C2024 02 14.41043809 55 27.809-11 19 22.81         20.54wXED020F51
     K24C08C  C2024 02 14.42215609 55 20.592-11 22 34.14         20.56wXED020F51
     K24C08C  C2024 02 14.43387509 55 13.338-11 25 46.23         20.94wXED020F51
     K24C08C  C2024 02 14.52726609 54 15.599-11 51 09.81         20.60GVED020F51
     K24C08C  C2024 02 14.52791009 54 15.199-11 51 20.22         20.78GVED020F51
     K24C08C KC2024 02 14.93418109 50 23.44 -13 43 06.2          20.3 GVED020L01
     K24C08C KC2024 02 14.93603809 50 22.33 -13 43 36.1          20.4 GVED020L01
     K24C08C KC2024 02 14.93859109 50 20.71 -13 44 18.7          20.7 GVED020L01

Observer details:
F51 Pan-STARRS 1, Haleakala.  Observers J. Herman, T. Lowe, P. Minguez, A.
    Schultz, I. Smith.  Measurers K. Chambers, T. de Boer, J. Fairlamb, H.
    Gao, M. Huber, C.-C. Lin, E. Magnier, Y. Ramanjooloo, R. Wainscoat, R.
    Weryk.  1.8-m Ritchey-Chretien + CCD.
F52 Pan-STARRS 2, Haleakala.  Observers J. Herman, T. Lowe, P. Minguez, A.
    Schultz, I. Smith.  Measurers K. Chambers, T. de Boer, J. Fairlamb, H.
    Gao, M. Huber, C.-C. Lin, E. Magnier, Y. Ramanjooloo, R. Wainscoat, R.
    Weryk.  1.8-m Ritchey-Chretien + CCD.
L01 Visnjan Observatory, Tican.  Observer K. Korlevic.  1.0-m f/2.9 reflector
    + CCD.

Orbital elements:
2024 CC8                                                 Earth MOID = 0.0752 AU
Epoch 2024 Mar. 31.0 TT = JDT 2460400.5                 Bell                    
M 342.94190              (2000.0)            P               Q                  
n   0.79111977     Peri.  257.53035     -0.74259566     +0.63411961             
a   1.1578205      Node   321.21519     -0.39796341     -0.67659793             
e   0.1892854      Incl.   20.12350     -0.53868062     -0.37430945             
P   1.25           H   25.09          G   0.15           U   8                  
Residuals in seconds of arc
240204 F52  0.2+  0.2+    240214 F51  0.0   0.1+    240214 L01  0.3-  0.3-
240204 F52  0.5-  0.7-    240214 F51  0.1+  0.3+    240214 L01  0.4+  0.4+
240204 F52  0.3+  0.2+    240214 F51  0.1-  0.2-    240214 L01  0.0   0.1-
240204 F52  0.1-  0.0     240214 F51  0.0   0.2-
240214 F51  0.1-  0.0     240214 F51  0.0   0.1-

Ephemeris:
2024 CC8                 a,e,i = 1.16, 0.19, 20                  q = 0.9387
Date    TT    R. A. (2000) Decl.     Delta      r    Elong.  Phase     V
2024 01 17    11 40 46.7 +40 19 59   0.2354  1.1441   128.1    42.6    23.9
...
2024 02 01    11 16 43.4 +28 06 40   0.1333  1.0980   145.7    30.3    22.2
...
2024 02 09    10 38 32.5 +10 09 16   0.09129 1.0737   161.9    16.6    20.9
...
2024 02 15    09 49 43.8 -13 59 18   0.07596 1.0558   153.0    25.2    20.8
2024 02 16    09 39 34.1 -18 34 30   0.07549 1.0529   148.5    29.3    20.9
2024 02 17    09 28 49.5 -23 07 20   0.07567 1.0500   143.8    33.8    21.0
...
2024 02 23    08 14 02.1 -45 32 52   0.08872 1.0329   117.3    58.3    22.0
...
2024 03 02    06 28 15.3 -58 53 04   0.1247  1.0114    95.8    77.1    23.3
...
2024 03 17    04 19 21.6 -62 54 53   0.2043  0.9766    78.9    89.2    24.7

M. P. C. Staff               (C) Copyright 2024 MPC           M.P.E.C. 2024-D20





More information about the Iaude mailing list